This demonstration page uses our WeatherBlox Daily Observations layout. Learn more.

Left ArrowRight Arrow

34.16533, -84.80231

Hourly Observations for November 11, 2020

Temp ( °F °C ) Dew Point ( °F °C ) Humidity (%) Winds ( mph kmh ) Pressure ( in mb ) Visibility ( mi km ) Precip ( " mm )
12:53 am 00:53 Cloudy 70 21.1 67 19.4 90 90 VRB 3 6 29.92 1013 8 13 0.00 0.00
1:53 am 01:53 Cloudy 70 21.1 67 19.4 90 90 Calm 29.91 1013 8 13 0.00 0.00
2:53 am 02:53 Cloudy 70 21.1 67 19.4 90 90 VRB 5 7 29.91 1013 9 14 0.00 0.00
3:15 am 03:15 Cloudy 70 21.1 68 20 93 93 Calm 29.93 1014 7 11 0.00 0.00
3:44 am 03:44 Cloudy 70 21.1 68 20 93 93 VRB 3 6 29.93 1014 10 16 0.00 0.00
3:53 am 03:53 Cloudy 70 21.1 68 20 93 93 ESE 3 6 29.91 1013 10 16 0.00 0.00
4:07 am 04:07 Mostly Cloudy 70 21.1 68 20 93 93 Calm 29.92 1013 10 16 0.00 0.00
4:14 am 04:14 Partly Cloudy 70 21.1 68 20 93 93 Calm 29.92 1013 10 16 0.00 0.00
4:34 am 04:34 Mostly Cloudy 69 20.6 67 19.4 93 93 Calm 29.92 1013 10 16 0.00 0.00
4:53 am 04:53 Cloudy 69 20.6 67 19.4 93 93 N 3 6 29.91 1013 10 16 0.00 0.00
5:09 am 05:09 Cloudy with Mist and Fog 69 20.6 67 19.4 93 93 Calm 29.92 1013 3 4 0.00 0.00
5:11 am 05:11 Cloudy with Mist and Fog 69 20.6 67 19.4 93 93 Calm 29.92 1013 2 3 0.00 0.00
5:23 am 05:23 Cloudy with Mist and Fog 68 20 66 18.9 93 93 Calm 29.92 1013 2 3 0.00 0.00
5:30 am 05:30 Cloudy with Mist and Fog 68 20 66 18.9 93 93 Calm 29.92 1013 5 8 0.00 0.00
5:35 am 05:35 Cloudy with Mist and Fog 69 20.6 66 18.9 90 90 Calm 29.92 1013 3 4 0.00 0.00
5:43 am 05:43 Cloudy with Mist and Fog 69 20.6 67 19.4 93 93 Calm 29.92 1013 2 2 0.00 0.00
5:53 am 05:53 Cloudy with Mist and Fog 69 20.6 67 19.4 93 93 Calm 29.91 1013 2 3 0.00 0.00
6:02 am 06:02 Cloudy 69 20.6 67 19.4 93 93 Calm 29.93 1014 8 13 0.00 0.00
6:21 am 06:21 Cloudy 70 21.1 67 19.4 90 90 Calm 29.93 1014 9 14 0.00 0.00
6:53 am 06:53 Cloudy 70 21.1 67 19.4 90 90 Calm 29.92 1013 8 13 0.00 0.00
7:34 am 07:34 Cloudy with Mist and Fog 70 21.1 67 19.4 90 90 Calm 29.93 1014 2 3 0.00 0.00
7:48 am 07:48 Cloudy with Mist and Fog 70 21 68 20 94 94 Calm 29.93 1014 1 2 0.00 0.00
7:53 am 07:53 Cloudy with Mist and Fog 69 20.6 67 19.4 93 93 ENE 3 6 29.92 1013 2 2 0.00 0.00
7:58 am 07:58 Cloudy with Mist and Fog 70 21.1 67 19.4 90 90 Calm 29.94 1014 2 3 0.00 0.00
8:07 am 08:07 Cloudy with Mist and Fog 71 21.7 68 20 90 90 Calm 29.94 1014 4 6 0.00 0.00
8:18 am 08:18 Cloudy 71 21.7 69 20.6 94 94 Calm 29.94 1014 7 11 0.00 0.00
8:27 am 08:27 Cloudy 72 22.2 69 20.6 91 91 Calm 29.95 1014 7 11 0.00 0.00
8:51 am 08:51 Cloudy 73 23 70 21 89 89 Calm 29.94 1014 10 16 0.00 0.00
8:53 am 08:53 Cloudy 73 22.8 70 21.1 90 90 Calm 29.94 1014 10 16 0.00 0.00
9:41 am 09:41 Cloudy 74 23.3 70 21.1 88 88 SE 6 9 29.95 1014 10 16 0.00 0.00
9:53 am 09:53 Cloudy 74 23.3 70 21.1 88 88 SE 6 9 29.94 1014 10 16 0.00 0.00
10:53 am 10:53 Cloudy 77 25 71 21.7 82 82 VRB 6 9 29.93 1014 10 16 0.00 0.00
11:53 am 11:53 Cloudy 79 26.1 70 21.1 74 74 S 8 13 29.92 1013 10 16 0.00 0.00
12:53 pm 12:53 Mostly Cloudy 80 26.7 69 20.6 69 69 SSE 6 9 29.88 1012 10 16 0.00 0.00
1:53 pm 13:53 Mostly Cloudy 81 27.2 69 20.6 67 67 SSE 7 11 29.85 1011 10 16 0.00 0.00
2:53 pm 14:53 Partly Cloudy 80 26.7 70 21.1 71 71 SE 8 13 29.84 1011 10 16 0.00 0.00
3:53 pm 15:53 Cloudy 76 24.4 68 20 77 77 SSE 6 9 29.84 1011 10 16 0.00 0.00
4:53 pm 16:53 Mostly Cloudy with Nearby Thunderstorms 76 24.4 69 20.6 79 79 N 3 6 29.84 1011 10 16 0.00 0.00
5:09 pm 17:09 Mostly Cloudy 75 23.9 69 20.6 82 82 Calm 29.84 1011 10 16 0.00 0.00
5:53 pm 17:53 Cloudy 74 23.3 69 20.6 85 85 Calm 29.85 1011 10 16 0.00 0.00
6:14 pm 18:14 Cloudy 73 22.8 70 21.1 90 90 Calm 29.88 1012 10 16 0.00 0.00
6:32 pm 18:32 Cloudy with Heavy Rain 73 22.8 70 21.1 90 90 Calm 29.89 1012 2 3 0.10 2.54
6:49 pm 18:49 Cloudy with Light Rain 73 23 70 21 89 89 Calm 29.87 1012 3 5 0.22 5.59
6:53 pm 18:53 Cloudy with Light Rain 73 22.8 70 21.1 90 90 Calm 29.87 1012 4 6 0.23 5.84
7:36 pm 19:36 Cloudy with Light Rain 72 22.2 69 20.6 91 91 N 7 11 29.90 1012 10 16 0.01 0.25
7:46 pm 19:46 Cloudy with Light Rain 72 22.2 69 20.6 91 91 N 7 11 29.90 1012 10 16 0.01 0.25
7:53 pm 19:53 Cloudy with Rain 72 22.2 68 20 87 87 NNE 7 11 29.88 1012 7 11 0.02 0.51
8:05 pm 20:05 Cloudy with Rain 71 21.7 68 20 90 90 NNE 5 7 29.90 1012 5 8 0.03 0.76
8:13 pm 20:13 Cloudy with Light Rain 71 21.7 68 20 90 90 NE 3 6 29.90 1012 7 11 0.04 1.02
8:53 pm 20:53 Cloudy 71 21.7 68 20 90 90 Calm 29.89 1012 9 14 0.05 1.27
9:01 pm 21:01 Cloudy 71 21.7 68 20 90 90 Calm 29.91 1013 10 16 0.00 0.00
9:43 pm 21:43 Cloudy 70 21.1 67 19.4 90 90 Calm 29.92 1013 10 16 0.00 0.00
9:53 pm 21:53 Cloudy 70 21.1 67 19.4 90 90 Calm 29.90 1013 10 16 0.00 0.00
10:53 pm 22:53 Cloudy 70 21.1 67 19.4 90 90 Calm 29.89 1012 10 16 0.00 0.00
11:14 pm 23:14 Cloudy 70 21.1 67 19.4 90 90 Calm 29.91 1013 10 16 0.00 0.00
11:53 pm 23:53 Cloudy 69 20.6 67 19.4 93 93 Calm 29.89 1012 10 16 0.00 0.00

Powered by AerisWeather